Aeroporto :
LOGIN :

Iscrizione | Disclaimer

   EN    FR    IT 

 










Sommario :    VFR   VFR Marginale   IFR   IFR Intensivo   IFR Molto Intensivo
Visibilità : 
Base nubi : 
>= 8 km
>= 3000ft
5 / 8 km
1000 / 3000 ft
1500m / 5 km
500 / 1000 ft
800 / 1500m
200 / 500 ft
< 800m
< 200 ft
Simboli :   Temporali  Nebbia  Neve Forte  Precipitazioni Forti  Vento > 20 kt
SIGMETs :   Varie  Temporali  Ghiacco  Turbolenza  Onda orograficha  Ceneri Vulcaniche







- Altitudine del aeroporto : 13 ft
- Codice IATA : OST


EBOS - Oostend bruges Int.

ULTIMO METAR :
  • 190020Z 06007KT 9999 BKN032 13/08 Q1025 NOSIG

METARs OBSOLETI :
  • 182350Z 07006KT 9999 BKN032 13/08 Q1025 NOSIG
  • 182320Z 07006KT 9999 BKN032 12/08 Q1025 NOSIG
  • 182250Z 08005KT 9999 SCT032 12/08 Q1025 NOSIG
  • 182220Z 07006KT 9999 SCT032 12/08 Q1025 NOSIG
  • 182150Z 10006KT 9999 SCT032 12/08 Q1025 NOSIG

TAF TAF EBOS
Valido dal 19 a 00 ore il 20 a 06 ore UTC


182300Z 1900/2006 06007KT 9999 BKN035
TEMPO 2003/2006 2500 BR
Nessun NOTAM noto per questo aeroporto.



MetMap, La meteo Aeronautica in un colpo d'occhio ! - Copyright ORBIFLY Dicembre 2007 - Disclaimer

ORBIFLY MET'MAP TEAM :

Programmazione e sviluppo : Alexandra Zaïnal
Concezione e sviluppo : Baudouin d'Aumeries
Co-Programmazione e sviluppo : Marc-Olivier Méhu
Supporto tecnico e logistico : Manuel Goepfert
Aiuto per la traduzione : Arnaldo La Scala

Contatto : metmap@orbifly.com




FONTI E CREDITI :

   NOAA